User: anonymous   Login
Location: Caltech
(34.1382°N, 118.1253°W)
Time: 12:24:54
(UTC-07:00)
Language:

Spot 4 Rocket - Orbit

View from above orbital plane
View from above orbital plane
View from above satellite
View from above satellite

Ground track
Ground track

The orbit data is extracted from the following two-line orbital elements,

1 25261U 98017B   17115.85498628 +.00000109 +00000-0 +55074-4 0  9991
2 25261 098.5416 063.7769 0002190 237.5852 122.5121 14.33574042997263
Epoch (UTC): 25 April 2017 20:31:10
Eccentricity: 0.0002190
inclination: 98.5416°
perigee height: 778 km
apogee height: 781 km
right ascension of ascending node: 63.7769°
argument of perigee: 237.5852°
revolutions per day: 14.33574042
mean anomaly at epoch: 122.5121°
orbit number at epoch: 99726

The dashed part of the orbit path shows where the satellite is in the earth's shadow,  

DLR